SCP
0 0 0 0 0 0 0 0 0 0 0 0 0 0 0 0 0 0 0 0 0 0 0 0 0 0 0 0 0 0 0 0 0 0 0 0 0 0 0 -0 0 1 0 0 1
0 0 0 0 0 0 0 0 0 0 0 0 0 0 0 0 0 0 0 0 -0 0 0 0 0 0 0 0 0 0 0 0 0 0 0 0 0 0 0 0 0 1 1 1 1
0 0 0 0 0 0 0 0 0 0 0 0 0 0 0 0 0 0 0 0 0 0 0 0 0 0 0 0 0 0 0 0 0 0 0 0 0 0 -0 0 0 0 0 0 1
0 0 0 0 0 0 0 0 0 0 0 0 0 0 0 0 0 0 0 0 0 0 0 0 0 0 0 0 0 0 0 0 0 0 0 0 0 0 0 0 0 0 0 0 1
0 0 0 0 0 0 0 0 0 0 0 0 0 0 0 0 0 0 0 0 0 0 0 0 0 0 0 0 0 0 0 0 0 0 0 0 0 0 0 0 0 0 0 0 0
0 0 0 0 0 0 0 0 0 0 0 0 0 0 0 0 0 0 0 0 0 0 0 0 0 0 0 0 0 0 0 0 0 -0 0 0 0 0 0 0 0 0 1 0 0
0 0 0 0 0 0 0 0 0 0 0 0 0 0 0 0 0 0 0 0 0 0 0 0 0 0 0 0 0 0 0 0 0 0 -0 0 0 0 0 0 0 0 0 0 0
0 0 0 0 0 0 0 0 0 0 0 0 0 0 0 0 0 0 0 -0 0 0 0 0 0 0 0 0 0 0 0 0 0 0 -0 0 0 0 0 0 0 0 0 0 0
0 0 0 0 0 0 0 0 0 0 0 0 0 0 0 0 0 0 0 0 0 0 0 0 0 0 0 0 0 0 0 0 0 0 -0 0 0 0 0 0 0 0 0 0 0
0 0 0 0 0 0 0 0 0 0 0 0 0 0 0 0 -0 0 0 0 0 0 0 0 -0 0 0 0 0 0 0 0 0 0 0 0 0 0 0 0 0 0 0 0 0
0 0 0 0 0 0 0 0 0 0 0 0 0 0 0 -0 -0 0 0 0 0 0 0 0 0 0 -0 0 0 0 0 0 0 0 0 0 0 0 0 0 0 0 0 0 0
0 0 0 0 0 0 0 0 0 0 0 0 0 0 0 -0 0 0 0 0 0 0 0 0 -0 -0 0 0 0 0 0 0 -0 0 0 0 0 0 0 0 0 0 0 0 0
0 0 0 0 0 0 0 0 0 0 0 0 0 0 -0 0 0 0 0 0 0 0 0 0 -0 -0 0 0 0 0 0 0 -0 0 0 0 0 0 0 0 0 0 0 0 0
0 0 0 0 0 0 0 0 0 0 0 0 0 -0 -0 0 -0 0 0 0 0 0 0 -0 -0 -0 -0 0 0 0 -0 -0 -0 0 0 0 0 0 0 0 0 0 0 0 0
0 0 0 0 0 0 0 0 0 0 0 0 0 -0 -0 -0 -0 0 0 0 0 0 0 -0 -0 -0 -0 -0 0 0 -0 0 0 0 0 0 0 0 0 0 0 0 0 0 0
0 0 0 0 0 0 0 0 0 0 0 0 0 -0 -0 -0 -0 0 -0 0 0 0 0 -0 -0 -0 0 0 0 0 0 0 0 0 0 0 0 0 0 0 0 0 0 0 0
0 0 0 0 0 0 0 0 0 0 0 0 0 0 -0 -0 -0 0 0 -0 -0 -0 -0 -0 0 -0 0 -0 -0 0 -0 0 0 0 0 0 0 0 0 0 0 0 0 0 0
0 0 0 0 0 0 0 0 0 0 0 0 -0 -0 0 -0 -0 -0 0 0 -0 0 -0 0 0 0 0 0 -0 0 0 0 0 0 0 0 0 0 0 0 0 0 0 0 0
0 0 0 0 0 0 0 0 0 0 0 0 0 -0 -0 -0 -0 -0 0 -0 0 -0 0 0 0 0 0 0 0 0 0 0 0 0 0 0 0 0 0 0 0 0 0 0 0
0 0 0 -0 0 0 0 0 0 0 0 0 0 0 -0 -0 -0 -0 -0 -0 -0 -0 0 0 0 0 0 0 0 0 0 0 0 0 0 0 0 0 0 0 0 0 0 0 0
0 0 -0 -0 0 0 0 0 0 0 0 0 -0 0 0 0 -0 -0 -0 -0 -0 -0 0 0 0 0 0 0 0 0 0 0 0 0 0 0 0 0 0 0 0 0 0 0 0
0 0 -0 -0 0 0 0 0 0 0 0 0 -0 0 0 0 -0 -0 -0 -0 -0 0 0 0 0 0 0 0 0 0 0 -0 0 0 0 0 0 0 0 0 0 0 0 0 0
0 0 -0 -0 0 0 0 0 0 0 0 0 -0 0 0 0 0 0 -0 -0 -0 0 0 0 0 0 0 0 -0 -0 -0 0 0 0 0 0 0 0 0 0 0 0 0 0 0
0 0 -0 -0 0 0 0 0 0 0 0 -0 0 0 0 0 0 0 -0 -0 -0 0 0 0 0 0 0 0 0 0 -0 0 0 0 0 0 0 0 0 0 0 0 0 0 0
-0 0 -0 0 -0 0 0 0 0 0 0 -0 0 0 0 0 0 0 0 -0 0 -0 0 0 0 0 -0 0 -0 -0 -0 -0 0 0 0 0 0 0 0 0 0 0 0 0 0
0 0 -0 0 0 0 0 0 0 0 0 -0 0 -0 0 0 0 0 0 0 0 0 0 0 0 0 0 0 -0 -0 -0 -0 -0 0 0 0 0 0 0 0 0 0 0 0 0
-0 -0 0 -0 0 0 0 0 0 0 0 0 -0 0 0 0 0 0 0 0 0 0 0 0 0 0 0 0 0 0 0 0 0 0 -0 0 -0 0 0 0 0 0 0 0 0
Wind_Speed_500mb
19 19 20 21 22 23 26 27 27 26 25 27 28 30 33 36 42 42 43 37 32 24 9 25 29 24 18 26 32 23 13 35 53 43 14 31 22 46 25 26 21 17 22 39 57
17 19 23 25 26 27 28 30 31 29 28 28 29 30 35 39 44 49 25 24 15 19 22 21 24 22 19 10 21 21 16 49 13 13 17 40 31 18 8 15 8 15 24 40 59
25 26 28 28 28 29 31 30 32 32 32 31 32 29 31 37 47 10 8 2 4 5 13 20 25 24 23 29 22 12 43 23 25 31 31 36 47 36 10 11 15 15 42 52 65
23 29 32 30 32 35 35 33 30 29 30 32 32 30 30 33 14 3 8 10 1 6 8 12 23 16 17 14 27 25 48 36 36 53 34 36 38 41 36 35 21 14 45 61 65
26 32 37 33 34 33 31 31 33 30 32 31 31 31 30 25 51 51 41 45 53 57 46 37 26 29 17 13 34 31 34 39 42 45 51 50 35 33 43 59 51 34 34 63 70
30 33 37 30 28 30 33 34 34 33 33 32 33 31 31 44 44 24 26 29 26 30 32 30 32 35 24 18 29 11 25 39 46 50 32 40 46 21 29 54 43 41 36 68 65
33 36 34 29 33 37 35 37 38 36 34 35 35 31 39 71 53 54 51 59 57 49 41 35 39 39 7 10 46 41 26 32 36 33 16 32 42 50 41 18 44 39 42 63 69
34 33 33 33 31 31 35 37 39 37 38 37 29 26 35 43 25 26 28 35 32 29 45 54 39 42 42 30 16 9 15 30 23 31 23 23 35 36 44 35 39 47 36 53 56
23 26 28 31 35 38 40 42 41 38 32 21 21 21 26 16 23 29 28 39 40 34 34 40 40 31 16 22 17 11 17 21 27 32 13 34 29 27 44 40 29 48 49 52 47
32 36 37 38 37 37 37 40 36 26 16 14 18 10 24 16 27 57 58 55 53 49 27 35 27 15 20 20 28 18 21 22 28 16 39 43 45 21 51 45 47 30 61 42 51
37 37 36 34 32 31 29 34 12 7 13 22 28 33 59 43 50 56 43 32 28 28 24 26 17 33 49 42 35 21 27 23 33 19 19 48 42 24 39 53 43 31 45 33 41
39 40 35 29 26 20 19 12 8 16 21 31 24 37 39 37 30 44 24 15 10 21 19 14 43 50 27 40 39 28 29 38 21 30 30 25 33 34 26 16 39 23 21 33 32
22 21 18 20 13 11 8 7 13 20 8 19 21 22 18 20 21 34 11 11 13 16 31 33 17 32 35 33 41 42 42 38 23 24 31 23 11 17 7 25 33 28 22 28 26
12 10 11 7 6 5 8 8 19 19 9 12 10 7 19 32 13 26 21 13 12 11 13 27 30 35 36 34 42 41 46 28 36 18 22 32 13 12 26 21 15 35 23 27 29
5 7 8 9 6 5 7 14 17 4 8 18 15 17 44 10 28 6 26 14 13 11 7 9 23 37 44 49 40 25 36 35 25 23 10 38 8 16 27 18 20 18 23 19 28
6 9 8 3 8 6 9 13 1 11 9 17 14 17 17 9 8 21 13 14 23 13 7 10 8 18 21 19 36 3 4 20 16 12 12 10 6 14 26 24 16 19 24 16 21
20 12 8 5 2 9 11 2 9 9 8 19 12 17 14 11 12 9 12 14 8 10 10 9 5 3 11 14 22 17 11 5 10 11 5 7 12 6 16 24 25 20 34 20 18
20 12 8 3 6 8 7 9 11 6 10 11 12 27 5 17 9 13 13 15 6 11 6 6 5 7 5 5 7 14 7 5 6 4 7 12 8 7 13 34 45 40 32 27 26
17 14 11 8 7 7 1 10 8 2 12 16 20 11 12 9 9 8 11 19 11 13 10 9 6 4 8 5 1 10 7 4 10 4 8 2 6 10 13 21 31 33 29 28 28
13 13 16 11 7 5 10 8 0 6 12 7 5 4 7 14 15 11 12 7 21 11 11 7 6 8 6 11 6 2 1 6 6 6 8 5 8 8 4 9 15 16 20 23 23
5 6 13 10 7 9 7 5 2 6 9 6 9 8 10 9 7 9 13 8 17 20 20 7 2 10 4 11 4 8 2 3 9 5 6 7 6 11 7 10 14 19 20 23 24
4 5 13 5 9 9 4 4 3 7 8 6 7 10 7 9 9 6 8 5 28 25 20 9 7 8 8 7 10 5 4 3 6 2 7 6 7 10 14 15 25 19 24 23 21
7 5 17 1 6 3 6 4 2 8 5 7 6 5 6 8 10 5 10 14 25 17 14 12 8 5 9 7 6 12 13 8 10 7 10 7 7 10 20 22 24 28 19 21 19
7 4 13 18 12 14 10 7 3 8 6 8 8 12 15 7 5 12 15 9 36 24 25 5 9 9 5 7 4 11 23 14 9 9 13 14 14 8 11 13 16 21 23 21 19
6 2 5 0 7 6 5 6 4 6 5 7 8 8 11 8 11 12 10 14 9 37 23 9 13 16 27 19 29 22 24 27 18 7 11 10 9 9 8 10 14 21 21 23 21
11 13 11 9 7 14 7 5 2 4 2 4 7 17 12 7 6 10 15 12 7 19 12 12 5 8 18 22 29 26 37 24 30 22 19 20 14 8 21 24 17 19 22 21 20
16 26 13 3 4 8 1 1 3 2 8 6 10 11 9 8 18 24 21 29 17 9 7 7 6 7 7 10 13 17 24 19 9 14 9 7 8 10 14 18 15 13 14 17 17
Wind_Direction_500mb
328 329 331 331 331 330 325 322 321 322 323 321 323 326 328 328 321 320 302 299 284 275 268 248 232 227 236 243 232 255 238 232 229 231 221 230 243 253 262 263 268 212 190 184 173
309 310 316 322 325 325 322 319 316 317 318 318 321 328 333 331 324 311 313 308 307 255 238 257 260 253 267 249 240 215 252 235 267 251 215 233 245 246 292 306 304 208 180 165 173
296 303 303 310 315 318 317 317 312 310 314 318 319 325 323 318 320 297 119 36 333 160 251 253 264 259 256 244 236 237 242 265 267 281 283 232 247 244 221 263 227 267 184 180 174
303 313 323 302 310 314 313 311 311 299 300 305 317 318 315 308 291 220 195 247 197 133 228 242 245 244 249 214 232 252 264 273 278 282 296 248 264 244 223 240 253 325 221 185 179
310 307 310 302 309 312 308 308 310 307 304 307 307 310 312 282 263 278 262 265 269 273 275 269 256 235 227 233 239 245 263 270 278 284 290 278 261 229 234 244 256 274 239 205 192
303 304 310 305 304 312 314 312 310 309 309 306 302 305 293 269 288 288 289 280 274 265 258 248 244 239 250 243 235 270 267 271 263 259 257 285 264 233 231 226 242 265 245 215 202
292 292 298 303 305 311 313 309 307 312 312 301 296 295 275 258 280 288 279 276 268 260 260 262 245 233 220 246 251 257 265 274 262 261 258 296 244 243 227 229 243 267 260 229 215
292 290 293 299 303 308 312 311 312 316 303 295 293 281 262 279 290 281 278 278 271 253 253 249 243 240 238 256 304 329 241 253 255 245 246 236 257 239 215 201 212 265 286 219 212
303 300 298 300 300 303 305 308 314 307 292 290 273 250 263 284 278 286 269 284 284 276 256 234 228 226 212 223 249 209 250 240 264 227 258 200 247 221 202 186 191 250 265 226 205
294 294 294 295 302 301 305 309 318 298 282 267 258 254 259 272 288 292 288 288 269 247 243 217 218 223 202 209 223 216 208 241 247 222 215 242 235 250 196 188 202 235 257 226 196
286 286 290 300 299 300 307 322 332 286 289 259 261 252 279 303 300 301 308 284 241 211 215 190 211 216 206 211 224 217 224 220 241 238 288 224 230 226 186 187 180 233 236 192 181
278 278 285 295 292 297 310 330 339 316 303 308 282 270 285 294 290 306 315 201 195 221 198 200 221 218 219 214 212 224 231 239 258 258 202 255 239 211 176 178 188 170 178 181 175
288 275 278 284 287 284 295 324 325 326 293 293 305 285 293 278 274 291 272 228 226 229 200 205 231 190 188 192 201 211 215 232 225 203 216 207 257 150 138 113 124 150 168 163 165
294 259 273 257 235 224 305 318 324 325 57 285 335 293 308 316 268 300 282 225 221 262 251 222 221 178 189 204 193 213 220 246 225 269 210 199 199 178 163 142 132 135 155 151 147
240 258 209 176 165 232 296 312 321 340 22 302 304 313 323 252 298 309 313 249 270 256 242 253 184 181 190 205 194 224 190 201 198 232 166 174 194 162 164 141 148 122 135 130 135
171 141 115 193 244 268 310 321 22 41 269 326 314 334 350 307 271 303 331 261 269 284 227 254 230 190 195 203 189 155 197 207 175 237 180 188 107 159 174 165 148 137 121 133 134
118 118 140 187 291 307 319 301 32 104 340 305 326 332 331 289 307 333 317 318 340 314 344 337 125 277 132 171 181 193 194 167 204 168 146 133 106 49 333 149 146 145 130 142 121
122 123 117 84 334 323 326 49 64 241 261 309 310 313 312 359 318 323 326 346 302 344 318 22 2 14 17 224 178 166 261 151 124 90 80 355 54 47 37 78 97 102 114 123 119
113 114 76 47 9 340 346 49 194 338 322 313 321 14 319 334 348 314 359 346 322 337 336 332 352 45 357 142 110 157 55 255 110 94 86 91 75 94 57 72 90 107 111 107 111
121 107 39 18 11 4 76 132 123 309 318 299 19 13 300 311 339 7 335 320 334 327 341 296 301 12 336 6 27 95 68 102 29 94 102 51 68 73 47 98 118 108 111 112 118
95 101 17 7 10 48 103 129 16 310 320 298 322 296 276 300 295 310 316 302 350 317 326 300 307 338 50 19 354 31 90 132 113 73 115 130 79 355 50 139 148 142 148 146 136
108 59 4 2 43 54 89 100 301 329 321 297 276 260 271 296 293 311 318 301 319 309 328 325 359 48 67 261 256 282 347 95 117 339 54 67 67 14 70 91 122 128 149 158 161
99 92 28 42 106 67 165 141 297 4 321 317 285 352 280 286 309 315 321 284 333 334 348 324 12 27 355 1 18 21 349 4 71 74 39 86 94 50 71 73 98 117 137 156 178
125 58 45 54 72 127 131 68 26 298 285 304 284 314 317 322 291 309 323 305 334 356 354 21 7 54 94 74 326 16 6 351 86 73 83 58 112 80 81 92 105 118 133 134 145
110 107 104 258 5 97 152 84 24 344 303 304 320 4 355 305 325 347 320 312 321 7 359 51 31 22 43 40 70 55 27 31 58 141 88 122 87 85 96 117 134 132 130 131 129
141 141 114 117 137 79 3 70 38 272 327 323 320 334 334 315 321 317 332 357 9 326 20 346 32 1 41 19 46 51 24 31 59 60 68 88 63 54 103 112 123 130 136 134 137
146 133 130 58 98 80 128 68 263 241 255 266 303 307 336 304 297 285 281 288 276 313 315 52 104 46 2 358 341 33 347 357 21 44 117 96 132 115 82 79 91 123 132 131 133
Wind_Speed_850mb
19 19 20 21 22 23 26 27 27 26 25 27 28 30 33 36 42 42 43 37 32 24 9 25 29 24 18 26 32 23 13 35 53 43 14 31 22 46 25 26 21 17 22 39 57
17 19 23 25 26 27 28 30 31 29 28 28 29 30 35 39 44 49 25 24 15 19 22 21 24 22 19 10 21 21 16 49 13 13 17 40 31 18 8 15 8 15 24 40 59
25 26 28 28 28 29 31 30 32 32 32 31 32 29 31 37 47 10 8 2 4 5 13 20 25 24 23 29 22 12 43 23 25 31 31 36 47 36 10 11 15 15 42 52 65
23 29 32 30 32 35 35 33 30 29 30 32 32 30 30 33 14 3 8 10 1 6 8 12 23 16 17 14 27 25 48 36 36 53 34 36 38 41 36 35 21 14 45 61 65
26 32 37 33 34 33 31 31 33 30 32 31 31 31 30 25 51 51 41 45 53 57 46 37 26 29 17 13 34 31 34 39 42 45 51 50 35 33 43 59 51 34 34 63 70
30 33 37 30 28 30 33 34 34 33 33 32 33 31 31 44 44 24 26 29 26 30 32 30 32 35 24 18 29 11 25 39 46 50 32 40 46 21 29 54 43 41 36 68 65
33 36 34 29 33 37 35 37 38 36 34 35 35 31 39 71 53 54 51 59 57 49 41 35 39 39 7 10 46 41 26 32 36 33 16 32 42 50 41 18 44 39 42 63 69
34 33 33 33 31 31 35 37 39 37 38 37 29 26 35 43 25 26 28 35 32 29 45 54 39 42 42 30 16 9 15 30 23 31 23 23 35 36 44 35 39 47 36 53 56
23 26 28 31 35 38 40 42 41 38 32 21 21 21 26 16 23 29 28 39 40 34 34 40 40 31 16 22 17 11 17 21 27 32 13 34 29 27 44 40 29 48 49 52 47
32 36 37 38 37 37 37 40 36 26 16 14 18 10 24 16 27 57 58 55 53 49 27 35 27 15 20 20 28 18 21 22 28 16 39 43 45 21 51 45 47 30 61 42 51
37 37 36 34 32 31 29 34 12 7 13 22 28 33 59 43 50 56 43 32 28 28 24 26 17 33 49 42 35 21 27 23 33 19 19 48 42 24 39 53 43 31 45 33 41
39 40 35 29 26 20 19 12 8 16 21 31 24 37 39 37 30 44 24 15 10 21 19 14 43 50 27 40 39 28 29 38 21 30 30 25 33 34 26 16 39 23 21 33 32
22 21 18 20 13 11 8 7 13 20 8 19 21 22 18 20 21 34 11 11 13 16 31 33 17 32 35 33 41 42 42 38 23 24 31 23 11 17 7 25 33 28 22 28 26
12 10 11 7 6 5 8 8 19 19 9 12 10 7 19 32 13 26 21 13 12 11 13 27 30 35 36 34 42 41 46 28 36 18 22 32 13 12 26 21 15 35 23 27 29
5 7 8 9 6 5 7 14 17 4 8 18 15 17 44 10 28 6 26 14 13 11 7 9 23 37 44 49 40 25 36 35 25 23 10 38 8 16 27 18 20 18 23 19 28
6 9 8 3 8 6 9 13 1 11 9 17 14 17 17 9 8 21 13 14 23 13 7 10 8 18 21 19 36 3 4 20 16 12 12 10 6 14 26 24 16 19 24 16 21
20 12 8 5 2 9 11 2 9 9 8 19 12 17 14 11 12 9 12 14 8 10 10 9 5 3 11 14 22 17 11 5 10 11 5 7 12 6 16 24 25 20 34 20 18
20 12 8 3 6 8 7 9 11 6 10 11 12 27 5 17 9 13 13 15 6 11 6 6 5 7 5 5 7 14 7 5 6 4 7 12 8 7 13 34 45 40 32 27 26
17 14 11 8 7 7 1 10 8 2 12 16 20 11 12 9 9 8 11 19 11 13 10 9 6 4 8 5 1 10 7 4 10 4 8 2 6 10 13 21 31 33 29 28 28
13 13 16 11 7 5 10 8 0 6 12 7 5 4 7 14 15 11 12 7 21 11 11 7 6 8 6 11 6 2 1 6 6 6 8 5 8 8 4 9 15 16 20 23 23
5 6 13 10 7 9 7 5 2 6 9 6 9 8 10 9 7 9 13 8 17 20 20 7 2 10 4 11 4 8 2 3 9 5 6 7 6 11 7 10 14 19 20 23 24
4 5 13 5 9 9 4 4 3 7 8 6 7 10 7 9 9 6 8 5 28 25 20 9 7 8 8 7 10 5 4 3 6 2 7 6 7 10 14 15 25 19 24 23 21
7 5 17 1 6 3 6 4 2 8 5 7 6 5 6 8 10 5 10 14 25 17 14 12 8 5 9 7 6 12 13 8 10 7 10 7 7 10 20 22 24 28 19 21 19
7 4 13 18 12 14 10 7 3 8 6 8 8 12 15 7 5 12 15 9 36 24 25 5 9 9 5 7 4 11 23 14 9 9 13 14 14 8 11 13 16 21 23 21 19
6 2 5 0 7 6 5 6 4 6 5 7 8 8 11 8 11 12 10 14 9 37 23 9 13 16 27 19 29 22 24 27 18 7 11 10 9 9 8 10 14 21 21 23 21
11 13 11 9 7 14 7 5 2 4 2 4 7 17 12 7 6 10 15 12 7 19 12 12 5 8 18 22 29 26 37 24 30 22 19 20 14 8 21 24 17 19 22 21 20
16 26 13 3 4 8 1 1 3 2 8 6 10 11 9 8 18 24 21 29 17 9 7 7 6 7 7 10 13 17 24 19 9 14 9 7 8 10 14 18 15 13 14 17 17
Wind_Direction_850mb
328 329 331 331 331 330 325 322 321 322 323 321 323 326 328 328 321 320 302 299 284 275 268 248 232 227 236 243 232 255 238 232 229 231 221 230 243 253 262 263 268 212 190 184 173
309 310 316 322 325 325 322 319 316 317 318 318 321 328 333 331 324 311 313 308 307 255 238 257 260 253 267 249 240 215 252 235 267 251 215 233 245 246 292 306 304 208 180 165 173
296 303 303 310 315 318 317 317 312 310 314 318 319 325 323 318 320 297 119 36 333 160 251 253 264 259 256 244 236 237 242 265 267 281 283 232 247 244 221 263 227 267 184 180 174
303 313 323 302 310 314 313 311 311 299 300 305 317 318 315 308 291 220 195 247 197 133 228 242 245 244 249 214 232 252 264 273 278 282 296 248 264 244 223 240 253 325 221 185 179
310 307 310 302 309 312 308 308 310 307 304 307 307 310 312 282 263 278 262 265 269 273 275 269 256 235 227 233 239 245 263 270 278 284 290 278 261 229 234 244 256 274 239 205 192
303 304 310 305 304 312 314 312 310 309 309 306 302 305 293 269 288 288 289 280 274 265 258 248 244 239 250 243 235 270 267 271 263 259 257 285 264 233 231 226 242 265 245 215 202
292 292 298 303 305 311 313 309 307 312 312 301 296 295 275 258 280 288 279 276 268 260 260 262 245 233 220 246 251 257 265 274 262 261 258 296 244 243 227 229 243 267 260 229 215
292 290 293 299 303 308 312 311 312 316 303 295 293 281 262 279 290 281 278 278 271 253 253 249 243 240 238 256 304 329 241 253 255 245 246 236 257 239 215 201 212 265 286 219 212
303 300 298 300 300 303 305 308 314 307 292 290 273 250 263 284 278 286 269 284 284 276 256 234 228 226 212 223 249 209 250 240 264 227 258 200 247 221 202 186 191 250 265 226 205
294 294 294 295 302 301 305 309 318 298 282 267 258 254 259 272 288 292 288 288 269 247 243 217 218 223 202 209 223 216 208 241 247 222 215 242 235 250 196 188 202 235 257 226 196
286 286 290 300 299 300 307 322 332 286 289 259 261 252 279 303 300 301 308 284 241 211 215 190 211 216 206 211 224 217 224 220 241 238 288 224 230 226 186 187 180 233 236 192 181
278 278 285 295 292 297 310 330 339 316 303 308 282 270 285 294 290 306 315 201 195 221 198 200 221 218 219 214 212 224 231 239 258 258 202 255 239 211 176 178 188 170 178 181 175
288 275 278 284 287 284 295 324 325 326 293 293 305 285 293 278 274 291 272 228 226 229 200 205 231 190 188 192 201 211 215 232 225 203 216 207 257 150 138 113 124 150 168 163 165
294 259 273 257 235 224 305 318 324 325 57 285 335 293 308 316 268 300 282 225 221 262 251 222 221 178 189 204 193 213 220 246 225 269 210 199 199 178 163 142 132 135 155 151 147
240 258 209 176 165 232 296 312 321 340 22 302 304 313 323 252 298 309 313 249 270 256 242 253 184 181 190 205 194 224 190 201 198 232 166 174 194 162 164 141 148 122 135 130 135
171 141 115 193 244 268 310 321 22 41 269 326 314 334 350 307 271 303 331 261 269 284 227 254 230 190 195 203 189 155 197 207 175 237 180 188 107 159 174 165 148 137 121 133 134
118 118 140 187 291 307 319 301 32 104 340 305 326 332 331 289 307 333 317 318 340 314 344 337 125 277 132 171 181 193 194 167 204 168 146 133 106 49 333 149 146 145 130 142 121
122 123 117 84 334 323 326 49 64 241 261 309 310 313 312 359 318 323 326 346 302 344 318 22 2 14 17 224 178 166 261 151 124 90 80 355 54 47 37 78 97 102 114 123 119
113 114 76 47 9 340 346 49 194 338 322 313 321 14 319 334 348 314 359 346 322 337 336 332 352 45 357 142 110 157 55 255 110 94 86 91 75 94 57 72 90 107 111 107 111
121 107 39 18 11 4 76 132 123 309 318 299 19 13 300 311 339 7 335 320 334 327 341 296 301 12 336 6 27 95 68 102 29 94 102 51 68 73 47 98 118 108 111 112 118
95 101 17 7 10 48 103 129 16 310 320 298 322 296 276 300 295 310 316 302 350 317 326 300 307 338 50 19 354 31 90 132 113 73 115 130 79 355 50 139 148 142 148 146 136
108 59 4 2 43 54 89 100 301 329 321 297 276 260 271 296 293 311 318 301 319 309 328 325 359 48 67 261 256 282 347 95 117 339 54 67 67 14 70 91 122 128 149 158 161
99 92 28 42 106 67 165 141 297 4 321 317 285 352 280 286 309 315 321 284 333 334 348 324 12 27 355 1 18 21 349 4 71 74 39 86 94 50 71 73 98 117 137 156 178
125 58 45 54 72 127 131 68 26 298 285 304 284 314 317 322 291 309 323 305 334 356 354 21 7 54 94 74 326 16 6 351 86 73 83 58 112 80 81 92 105 118 133 134 145
110 107 104 258 5 97 152 84 24 344 303 304 320 4 355 305 325 347 320 312 321 7 359 51 31 22 43 40 70 55 27 31 58 141 88 122 87 85 96 117 134 132 130 131 129
141 141 114 117 137 79 3 70 38 272 327 323 320 334 334 315 321 317 332 357 9 326 20 346 32 1 41 19 46 51 24 31 59 60 68 88 63 54 103 112 123 130 136 134 137
146 133 130 58 98 80 128 68 263 241 255 266 303 307 336 304 297 285 281 288 276 313 315 52 104 46 2 358 341 33 347 357 21 44 117 96 132 115 82 79 91 123 132 131 133